Location: Unspecified
(0.0000°N, 0.0000°E)
Time: 09:50:04
(UTC+00:00)

deb Delta 126 - Pass Details

Date: 18 February 2026
Orbit: 1485 x 1545 km, 102.1° (Epoch: 9 March)

Event Time Altitude Azimuth Distance (km) Brightness Sun altitude
Rises 04:02:02 0° 1° (N) 4,665 ? -32.2°
Enters shadow 04:04:55 10° 355° (N) 3,718 ? -31.5°
Exits shadow 04:20:53 10° 219° (SW) 3,639 ? -27.6°
Drops below altitude 10° 04:21:00 10° 218° (SW) 3,677 ? -27.6°
Sets 04:23:55 0° 212° (SSW) 4,623 ? -26.9°
